Temperature
17 17 17 17 17 16 16 16 16 16 16 16 16 16 16 16 16 16 16 16 16 16 16 16 16 16 16 16 16 16 16 16 16 16 15 15 15 15 15 15 15 15 15
18 17 17 17 16 16 16 16 16 16 16 16 16 16 16 16 16 16 16 16 16 16 16 16 16 16 16 16 16 16 16 16 16 15 15 15 15 15 15 15 15 15 15
17 17 17 16 16 16 16 16 16 16 16 16 16 16 16 16 16 16 16 16 16 16 16 16 16 16 16 16 16 16 16 15 15 15 15 14 15 15 15 15 15 15 15
16 17 16 16 16 16 16 16 16 16 16 16 16 16 16 16 16 15 16 16 16 16 15 15 15 15 15 15 15 15 15 15 15 15 14 14 14 15 15 15 15 15 15
16 16 16 16 16 16 16 16 16 16 16 16 16 16 16 16 16 15 15 16 15 15 15 15 15 15 15 15 15 15 15 15 15 14 14 14 14 14 15 15 15 15 15
15 16 16 16 16 16 16 16 16 16 16 16 16 16 15 15 15 15 15 15 15 15 15 15 15 15 15 15 15 15 15 15 14 14 14 14 14 14 15 15 15 15 15
15 15 15 15 16 16 16 15 15 15 15 15 15 15 15 15 15 15 15 15 15 15 15 15 15 15 15 15 15 15 15 15 14 14 14 14 14 14 14 14 14 14 14
15 15 15 15 15 15 15 15 15 15 15 15 15 15 15 15 15 15 15 15 15 15 15 15 15 15 15 15 15 15 15 14 14 14 14 14 14 14 14 14 14 14 14
14 15 15 15 15 15 15 15 15 15 15 15 15 15 15 15 15 15 15 15 15 15 15 15 15 15 15 15 14 14 14 14 14 14 13 14 14 14 14 14 14 14 14
14 14 14 14 15 15 15 15 15 15 15 15 15 15 15 15 15 15 15 15 15 15 15 15 14 14 14 14 14 14 14 14 13 13 13 13 13 14 14 14 14 14 14
14 14 14 14 14 14 14 14 15 15 15 15 14 14 14 14 14 14 15 14 14 14 14 14 14 14 14 14 14 14 14 14 13 13 13 13 13 13 13 13 13 13 13
13 13 14 14 14 14 14 14 14 14 14 14 14 14 14 14 14 14 14 14 14 14 14 14 14 14 14 14 14 14 13 13 13 13 13 13 13 13 13 13 13 13 13
13 13 13 13 13 14 14 14 14 14 14 14 14 14 14 14 14 14 14 14 14 14 14 14 14 13 13 13 13 13 13 13 13 13 13 13 13 13 13 13 13 13 13
12 13 13 13 13 13 13 13 13 13 13 13 13 13 13 14 14 13 13 13 13 13 14 14 13 13 13 13 13 13 13 13 12 12 12 12 12 12 12 12 12 12 12
12 12 12 13 13 13 13 13 13 13 13 13 13 13 13 13 13 13 13 13 13 13 13 13 13 13 13 13 12 12 12 12 12 12 12 12 12 12 12 12 12 12 12
12 12 12 12 13 13 13 13 13 13 13 13 13 13 13 13 13 13 13 13 13 13 13 13 13 12 12 12 12 12 12 12 12 12 11 11 11 11 11 11 11 11 11
12 12 12 12 12 12 12 13 13 13 12 12 12 12 13 13 13 13 13 13 13 13 13 13 12 12 12 12 12 12 11 11 11 11 11 11 11 11 11 11 11 11 11
11 11 11 12 12 12 12 12 12 12 12 12 12 12 12 12 12 12 12 12 12 12 12 12 12 12 12 11 11 11 11 11 11 10 10 10 10 10 10 10 10 10 10
11 11 11 11 12 12 12 12 12 12 12 12 12 12 12 12 12 12 12 12 12 12 12 12 12 12 11 11 11 11 11 10 10 10 10 10 9 9 9 10 10 9 9
11 11 11 11 11 11 11 11 11 11 11 11 11 11 11 11 11 11 11 11 11 11 11 11 11 11 11 11 11 10 10 10 10 9 9 9 9 9 9 9 9 9 9
10 10 11 11 11 11 11 11 11 11 11 11 11 11 11 11 11 11 11 11 11 11 11 10 11 11 10 10 10 10 10 9 9 9 9 9 8 8 8 8 8 8 8
10 10 10 10 11 11 10 10 10 10 10 10 10 10 10 10 10 10 10 10 10 10 10 10 10 10 10 9 9 9 9 9 9 8 8 8 8 8 8 8 8 8 8
10 10 10 10 10 10 10 10 10 10 10 10 10 10 10 10 10 10 10 10 10 10 10 10 9 9 9 9 9 8 8 8 8 8 8 8 7 7 7 7 7 7 7
10 10 10 10 10 10 10 10 10 10 10 10 10 10 10 9 9 9 9 9 10 9 9 9 9 9 9 9 8 8 8 7 7 7 7 7 7 7 7 7 7 7 7
10 10 10 10 10 10 10 9 9 9 9 9 9 9 9 9 9 9 9 9 9 9 9 9 9 9 8 8 8 8 7 7 7 6 6 7 7 7 6 6 6 6 6
9 9 9 9 9 9 9 9 9 9 9 9 9 9 9 9 9 9 9 9 9 8 8 8 8 8 8 8 7 7 7 6 6 6 5 6 6 6 6 6 6 6 5
Wind_Speed
10 13 15 14 14 13 13 12 12 11 11 10 9 9 9 9 9 9 9 9 9 9 9 9 9 10 10 10 10 10 9 9 8 8 8 8 8 8 8 9 9 9 10
12 15 16 15 14 13 13 12 12 12 11 10 9 9 9 9 9 9 9 9 9 9 9 9 9 9 9 9 9 8 8 7 5 5 4 5 6 7 8 9 9 8 9
13 15 16 15 14 13 13 13 13 12 11 10 10 9 9 9 8 8 8 9 8 7 8 8 8 8 8 7 7 7 6 4 3 2 1 1 5 7 7 7 6 6 6
12 14 15 16 14 14 13 13 13 12 11 10 10 10 9 9 8 8 8 8 7 7 7 7 7 7 7 7 6 5 4 3 4 5 3 3 7 7 6 6 5 5 4
10 13 14 16 15 14 13 13 13 12 11 10 10 10 9 9 8 8 8 8 8 7 7 7 7 7 6 6 5 4 3 4 6 7 3 5 7 7 6 5 5 4 3
10 13 14 15 15 14 13 13 12 12 11 10 10 9 9 8 8 8 8 8 8 7 6 6 6 6 5 5 4 4 3 5 7 6 3 6 8 6 5 5 4 4 3
10 12 14 15 15 14 14 13 12 12 11 10 10 9 9 8 8 8 7 7 7 7 6 5 5 5 4 4 3 3 4 6 8 6 3 6 7 5 4 4 4 3 3
9 11 13 15 15 15 14 13 13 12 11 10 10 9 9 8 8 8 7 6 6 6 5 4 4 4 3 3 3 3 4 7 8 6 3 6 7 5 4 3 4 4 4
9 10 11 13 15 15 14 13 13 12 11 10 9 9 9 9 9 8 7 6 5 5 5 4 4 3 2 2 2 3 5 8 10 6 3 6 6 5 3 3 4 4 4
7 7 9 11 12 13 13 13 12 12 11 10 9 8 7 8 8 7 7 6 5 5 4 4 3 2 2 2 2 4 6 8 8 4 4 6 6 5 4 4 4 5 6
6 6 7 8 9 11 11 11 11 10 9 9 8 7 6 6 6 6 6 5 4 3 2 2 1 2 3 3 3 4 6 5 5 5 7 7 6 5 5 5 5 6 6
5 5 6 7 7 8 8 9 8 8 7 7 6 5 4 5 5 5 5 4 2 1 1 1 2 3 3 1 2 3 3 5 5 6 7 8 6 6 5 6 6 6 6
5 5 5 6 7 7 6 7 6 6 6 7 6 5 5 5 5 6 4 3 2 2 2 3 3 3 3 2 1 2 3 4 4 5 6 7 7 6 6 6 6 6 6
6 5 5 6 6 6 7 6 6 5 5 6 6 6 5 4 4 4 4 4 4 4 3 3 3 3 4 4 3 3 3 3 3 4 6 7 6 6 7 7 7 7 7
6 5 5 5 6 6 6 5 6 5 6 7 7 8 7 5 3 4 4 5 5 5 4 3 3 3 3 4 5 5 4 5 4 5 6 7 7 7 8 8 8 8 8
7 5 4 5 6 6 5 5 5 6 6 7 7 8 8 7 5 4 4 4 5 5 6 5 4 3 2 3 3 4 4 5 5 6 6 7 7 8 8 9 9 9 9
7 6 6 6 6 6 6 6 6 6 7 6 6 8 8 8 7 5 3 3 5 6 6 5 4 3 2 2 3 3 4 5 5 6 6 6 6 8 9 9 10 10 10
8 7 6 6 7 7 7 6 6 7 7 6 6 7 8 9 7 5 3 3 6 7 5 2 2 3 3 3 3 3 2 3 4 5 7 8 7 7 7 7 8 9 10
8 7 6 6 7 7 7 6 6 7 6 6 7 7 7 8 7 6 4 4 6 5 4 3 3 3 3 3 2 2 1 1 2 4 5 6 7 6 6 7 7 8 9
7 7 7 6 6 6 5 4 4 5 4 6 6 7 7 7 7 6 4 6 6 3 4 4 4 3 2 3 3 2 1 0 1 3 3 4 5 6 7 6 7 7 8
7 7 6 6 5 4 3 3 3 3 3 3 4 6 6 6 6 6 4 4 4 3 3 4 3 3 3 3 2 2 1 1 2 2 2 2 3 5 6 6 7 7 7
6 6 5 5 5 4 3 2 2 3 2 3 3 4 5 5 5 5 4 3 3 3 4 4 3 3 2 3 2 2 2 1 1 1 2 1 1 3 4 5 6 6 6
5 5 5 5 5 5 4 3 3 2 1 2 2 2 2 2 3 4 4 3 3 2 2 3 3 3 2 2 2 2 1 2 2 1 1 1 1 1 2 3 4 5 5
6 5 5 5 5 4 4 3 2 2 1 1 2 2 2 2 2 2 2 3 2 2 2 2 2 2 2 2 2 1 0 0 1 2 2 1 0 0 1 1 2 3 4
6 5 4 5 5 4 3 2 2 1 1 1 1 2 2 2 1 1 1 2 2 1 2 2 2 1 1 1 1 2 2 2 1 1 3 3 2 1 0 1 1 1 2
6 5 5 5 4 4 3 3 2 3 2 2 2 2 2 2 1 1 1 0 1 1 1 1 1 1 1 1 1 1 1 1 1 1 2 3 3 2 2 1 1 1 1
Wind_Direction
123 130 135 134 131 129 128 126 124 119 117 116 111 109 106 103 96 91 90 93 92 89 87 86 88 84 79 77 77 75 74 74 75 74 74 76 74 68 61 53 57 69 71
127 132 136 135 133 130 128 126 123 119 116 115 112 110 107 103 96 92 89 92 95 92 90 88 87 85 82 77 77 75 73 71 72 74 77 79 84 75 63 58 60 65 71
124 131 135 134 132 129 128 127 123 119 117 117 114 111 107 103 98 93 91 87 90 91 91 88 86 84 80 77 77 75 70 58 36 4 308 171 111 84 74 66 62 62 65
124 130 133 131 129 127 125 124 122 120 118 117 113 109 106 103 100 95 90 85 82 86 91 90 85 82 82 79 76 72 56 13 332 317 306 111 102 93 83 71 61 56 56
120 124 128 129 127 125 123 122 122 121 119 118 113 109 105 101 98 90 84 80 76 80 89 91 87 83 79 76 70 60 27 346 324 310 316 84 89 93 81 70 61 52 48
117 119 126 126 126 125 124 123 123 122 119 116 112 107 105 102 99 91 83 79 73 73 83 88 86 86 81 71 61 43 7 339 322 311 22 80 93 91 77 62 53 42 35
113 116 127 124 121 122 123 121 120 118 116 112 110 107 106 103 98 91 84 80 75 71 76 83 84 81 80 67 48 16 342 326 312 316 31 82 92 87 69 46 29 18 14
109 115 123 123 119 115 114 115 113 113 112 110 109 108 109 104 97 92 85 79 71 65 68 79 78 69 63 53 26 355 332 319 319 328 24 83 87 77 57 25 359 349 345
106 119 120 121 118 113 109 110 109 108 109 107 106 106 107 105 101 95 87 75 67 60 65 69 58 53 44 26 350 321 311 307 308 308 5 80 80 62 32 353 335 328 321
97 108 120 120 121 116 110 109 107 106 108 107 104 106 111 115 111 101 90 79 68 58 63 67 48 24 1 319 292 293 298 301 300 310 56 75 64 39 12 349 334 329 324
95 101 114 111 109 114 117 115 111 110 108 108 106 107 114 110 104 101 96 90 75 58 59 64 9 313 301 285 268 277 297 299 317 41 62 73 54 27 6 354 347 341 332
111 109 116 114 111 112 115 116 110 106 102 92 87 86 88 90 96 101 112 112 93 39 30 327 306 289 297 309 302 298 305 325 1 50 66 67 48 28 11 358 352 347 342
118 107 109 115 110 107 106 106 100 100 96 83 73 59 66 77 81 82 88 75 31 30 18 341 331 330 337 337 347 327 323 346 20 53 71 68 52 33 21 11 8 5 0
113 112 109 105 104 92 93 95 92 83 81 75 63 51 55 57 56 50 54 38 29 14 359 345 325 342 343 3 14 356 357 11 30 70 77 74 58 39 26 20 16 13 10
116 110 110 109 107 99 93 92 85 74 73 76 65 50 49 53 45 33 38 34 26 10 359 346 354 6 2 8 7 7 6 12 30 63 84 80 67 49 37 26 21 18 16
106 104 105 102 102 102 96 92 84 80 79 77 66 56 50 52 48 36 32 25 19 9 356 358 8 10 8 11 8 9 7 12 30 50 83 84 71 57 44 35 28 24 21
107 98 91 97 93 94 90 87 84 81 79 72 66 59 52 50 46 41 33 26 10 1 3 4 3 6 10 16 12 7 15 23 28 45 65 75 73 66 54 42 35 31 27
107 100 95 99 93 85 80 77 79 77 75 69 65 59 53 48 43 41 33 25 12 4 4 358 13 10 5 10 8 354 11 25 29 50 61 64 60 58 52 45 37 31 28
108 106 99 95 94 89 86 83 82 81 75 72 65 58 50 44 38 44 36 25 15 11 2 2 23 10 356 359 348 334 1 22 30 57 68 70 66 56 46 40 37 33 29
108 111 108 102 102 102 98 93 87 80 77 75 67 57 48 41 34 37 41 29 16 19 9 8 13 11 355 352 338 333 309 166 69 65 61 67 66 58 44 33 33 28 28
109 108 112 112 107 108 107 103 101 94 85 75 71 64 52 41 31 33 32 32 23 24 14 7 11 10 6 357 352 328 299 147 112 99 75 63 60 56 45 38 40 31 24
118 116 117 117 111 102 102 104 104 107 104 104 90 73 58 48 32 25 25 28 22 18 18 13 16 6 353 15 13 336 335 327 323 133 110 102 58 55 50 43 45 34 36
126 127 129 119 113 106 98 97 94 88 89 96 106 99 72 67 54 35 22 26 15 22 23 6 17 21 351 350 35 43 17 316 322 290 214 144 103 74 73 49 48 31 29
136 133 131 121 113 110 110 115 120 130 141 153 147 147 139 114 87 49 24 26 18 15 8 352 35 13 3 340 342 11 226 284 315 310 291 244 141 102 98 63 49 32 28
136 138 132 121 116 117 126 140 145 136 138 136 148 153 153 144 145 109 36 22 16 16 12 6 15 11 357 345 334 329 318 306 251 238 289 304 312 268 177 152 116 45 26
137 139 138 137 140 149 162 169 170 163 160 165 184 173 181 179 180 171 176 324 347 14 1 346 334 343 333 327 323 322 320 315 322 298 287 303 298 278 264 222 179 162 54
Height
1506 1509 1511 1514 1516 1518 1520 1522 1523 1524 1526 1527 1528 1529 1530 1530 1531 1532 1533 1533 1534 1535 1535 1536 1536 1537 1537 1537 1537 1538 1538 1538 1538 1539 1539 1539 1539 1539 1539 1539 1539 1539 1539
1504 1508 1511 1514 1516 1518 1520 1522 1524 1525 1526 1527 1528 1529 1530 1531 1532 1533 1534 1534 1535 1536 1536 1537 1537 1537 1538 1538 1538 1538 1539 1539 1539 1540 1540 1540 1540 1540 1540 1540 1540 1540 1540
1504 1507 1511 1513 1516 1518 1520 1522 1524 1525 1527 1528 1529 1530 1531 1532 1533 1533 1534 1535 1536 1536 1537 1537 1538 1538 1538 1539 1539 1539 1539 1540 1540 1540 1540 1540 1541 1541 1541 1540 1540 1540 1540
1505 1507 1510 1513 1516 1518 1520 1522 1524 1526 1527 1528 1529 1530 1531 1532 1533 1534 1535 1535 1536 1537 1537 1538 1538 1538 1539 1539 1539 1540 1540 1540 1541 1541 1541 1542 1541 1541 1541 1541 1541 1541 1541
1505 1508 1510 1513 1516 1518 1521 1523 1524 1526 1527 1529 1530 1531 1532 1533 1533 1534 1535 1536 1536 1537 1537 1538 1538 1539 1539 1539 1540 1540 1540 1541 1541 1541 1542 1542 1542 1541 1541 1541 1541 1541 1541
1506 1508 1511 1513 1516 1518 1521 1523 1524 1526 1527 1529 1530 1531 1532 1533 1534 1534 1535 1536 1536 1537 1537 1538 1538 1539 1539 1540 1540 1540 1541 1541 1541 1541 1542 1542 1541 1541 1541 1541 1541 1541 1541
1506 1508 1511 1514 1516 1519 1521 1523 1524 1526 1528 1529 1530 1531 1532 1533 1534 1534 1535 1536 1536 1537 1537 1538 1538 1539 1539 1539 1540 1540 1540 1541 1541 1541 1541 1541 1541 1541 1541 1540 1541 1540 1540
1506 1508 1511 1514 1516 1518 1520 1523 1524 1526 1528 1529 1530 1531 1532 1533 1533 1534 1535 1536 1536 1536 1537 1537 1538 1538 1539 1539 1539 1540 1540 1540 1541 1541 1541 1540 1540 1540 1540 1540 1540 1540 1540
1506 1508 1511 1513 1516 1518 1520 1522 1524 1526 1527 1529 1530 1531 1532 1533 1533 1534 1535 1536 1536 1536 1537 1537 1538 1538 1538 1539 1539 1539 1539 1540 1540 1540 1540 1539 1539 1539 1539 1538 1538 1539 1538
1506 1508 1511 1513 1515 1518 1520 1522 1524 1525 1527 1528 1530 1531 1532 1533 1533 1534 1535 1535 1536 1536 1536 1537 1537 1538 1538 1538 1538 1539 1539 1539 1539 1539 1539 1538 1538 1538 1537 1537 1537 1537 1537
1507 1509 1511 1513 1515 1517 1519 1522 1524 1525 1527 1528 1529 1531 1532 1533 1533 1534 1534 1535 1535 1536 1536 1536 1537 1537 1537 1537 1538 1538 1538 1538 1538 1538 1538 1537 1537 1537 1536 1536 1535 1535 1535
1506 1508 1510 1513 1515 1517 1519 1521 1523 1525 1526 1528 1529 1530 1531 1532 1533 1533 1534 1535 1535 1535 1535 1536 1536 1536 1536 1536 1537 1537 1537 1537 1537 1536 1536 1536 1536 1535 1534 1534 1534 1533 1533
1506 1508 1510 1512 1515 1517 1519 1521 1523 1524 1526 1527 1529 1530 1531 1532 1532 1533 1533 1534 1534 1534 1535 1535 1535 1535 1535 1536 1536 1536 1536 1536 1536 1535 1534 1534 1534 1533 1533 1532 1532 1532 1531
1505 1507 1510 1512 1514 1516 1519 1521 1522 1524 1525 1527 1528 1529 1530 1531 1531 1532 1533 1533 1533 1534 1534 1534 1534 1534 1534 1535 1535 1534 1534 1534 1534 1533 1533 1533 1532 1532 1531 1531 1530 1530 1529
1505 1507 1510 1512 1514 1516 1518 1520 1522 1523 1525 1526 1527 1528 1529 1530 1531 1531 1532 1532 1532 1533 1533 1533 1533 1533 1533 1533 1533 1533 1533 1533 1533 1532 1531 1531 1530 1530 1529 1529 1528 1528 1527
1505 1507 1509 1512 1514 1516 1518 1520 1521 1523 1524 1526 1527 1528 1528 1529 1529 1530 1531 1532 1532 1532 1532 1532 1532 1532 1532 1532 1532 1532 1532 1531 1531 1531 1530 1529 1529 1528 1528 1527 1527 1526 1525
1505 1506 1509 1512 1514 1516 1518 1519 1521 1522 1524 1525 1526 1527 1528 1528 1529 1529 1530 1530 1531 1531 1531 1531 1531 1531 1531 1531 1531 1530 1530 1530 1529 1529 1528 1528 1527 1526 1526 1526 1525 1524 1523
1504 1507 1509 1511 1513 1515 1517 1518 1520 1522 1523 1524 1525 1526 1527 1527 1528 1528 1529 1529 1529 1529 1530 1529 1529 1529 1529 1529 1529 1529 1528 1528 1528 1527 1527 1526 1526 1525 1524 1524 1523 1522 1521
1505 1507 1509 1511 1512 1514 1516 1518 1520 1521 1522 1523 1524 1525 1526 1526 1526 1527 1527 1528 1528 1528 1528 1528 1527 1527 1527 1527 1527 1527 1526 1526 1526 1526 1525 1525 1524 1523 1522 1522 1521 1520 1519
1505 1507 1509 1511 1513 1514 1516 1518 1519 1521 1522 1523 1523 1524 1525 1525 1526 1526 1526 1526 1527 1527 1527 1526 1526 1526 1526 1525 1525 1525 1525 1525 1524 1524 1524 1523 1522 1521 1521 1520 1519 1518 1517
1506 1507 1509 1511 1513 1515 1516 1517 1519 1520 1521 1522 1523 1524 1524 1525 1525 1525 1525 1525 1525 1525 1525 1525 1524 1524 1524 1524 1523 1523 1523 1523 1522 1522 1522 1521 1521 1520 1519 1518 1516 1516 1515
1505 1507 1509 1511 1512 1514 1516 1517 1519 1520 1521 1522 1522 1523 1524 1524 1524 1524 1524 1524 1524 1524 1523 1524 1523 1522 1522 1522 1522 1521 1521 1522 1521 1520 1520 1519 1519 1518 1517 1516 1514 1513 1512
1505 1507 1509 1510 1511 1513 1515 1517 1518 1519 1520 1521 1521 1522 1522 1523 1523 1523 1523 1522 1523 1522 1522 1522 1522 1521 1521 1521 1521 1521 1521 1520 1520 1519 1518 1517 1517 1516 1515 1514 1512 1511 1510
1505 1507 1509 1510 1511 1512 1514 1515 1516 1517 1518 1519 1520 1521 1521 1521 1522 1522 1521 1521 1521 1521 1521 1520 1520 1519 1519 1519 1519 1519 1520 1519 1519 1517 1517 1515 1514 1513 1513 1512 1510 1509 1508
1504 1506 1507 1508 1510 1512 1513 1514 1515 1516 1517 1519 1519 1519 1519 1520 1520 1520 1520 1520 1519 1519 1519 1518 1518 1517 1517 1517 1517 1517 1517 1517 1516 1516 1514 1513 1512 1511 1510 1509 1508 1507 1505
1504 1505 1506 1508 1509 1511 1513 1514 1515 1516 1516 1517 1517 1517 1518 1518 1518 1518 1518 1517 1517 1517 1516 1516 1516 1515 1515 1515 1514 1514 1514 1514 1514 1513 1512 1510 1509 1508 1507 1506 1505 1504 1503